Find Starlink 32027

NORAD ID: 60143 Int'l Des: 2024-120 Owner: SPXS Country: US Constellation: starlink operational
LEOCIRCULAR

Current View

Loading 3D Globe...

About Starlink 32027

Starlink 32027 (NORAD 60143) is a starlink constellation satellite (v2 mini) launched Jun 27, 2024 by SPXS of US. It operates in LEO, CIRCULAR orbit with a mass of 730.00 kg.

About Starlink 32027

Description loading...

Upcoming Passes

Passes for default location (London). Set your location on the main map for personalized predictions.

Altitude History

Loading altitude history...

Two-Line Element Set

1 60143U 24120J 26171.39685337 .00000483 00000-0 25421-4 0 9997
2 60143 53.1596 201.9308 0001125 90.1975 269.9156 15.34392531112196
Epoch: Jun 20, 2026 • Age: 19 hours

Current Status

Altitude 475.5 km
Velocity 7.63 km/s
Sub-Earth Point -37.53°S, 167.01°W
Launch Date Jun 27, 2024
Age 1.9 years
Type internet

Technical Details

Classification Payload
Mass 730.00 kg
Dry Mass 700.00 kg
Total Mass 730.00 kg
Length 0.30 m
Diameter 4.10 m
Span 29.00 m
Shape Box + pan
Manufacturer SPXS
Bus Type Starlink V2M
Phase Status In Orbit
Owner/State SPXS/US

Most Searched